Regional Weather Roundup
Issued by NWS Jackson, KY

Home | Current Version | Previous Version | Text Only | Print | Product List | Glossary Off
Versions: 1 2 3 4 5 6 7 8 9 10 11 12 13 14 15 16 17 18 19 20 21 22 23 24 25 26 27 28 29 30 31 32 33 34 35 36 37 38 39 40 41 42 43 44 45 46 47 48

289
ASUS43 KJKL 240210
RWRJKL

EAST KENTUCKY HOURLY WEATHER ROUNDUP
NATIONAL WEATHER SERVICE JACKSON KY
1000 PM EDT SUN APR 23 2017

NOTE: "FAIR" INDICATES FEW OR NO CLOUDS BELOW 12,000 FEET WITH
NO SIGNIFICANT WEATHER AND/OR OBSTRUCTIONS TO VISIBILITY.

* THESE REPORTS ARE NOT UNDER NWS QUALITY CONTROL AND MAY NOT
  REPORT WEATHER SUCH AS PRECIPITATION AND FOG.

KYZ079-080-083-085-087-088-110-112-115-119-120-240300
...EASTERN KENTUCKY...

CITY           SKY/WX    TMP DP  RH WIND       PRES   REMARKS
JACKSON        CLOUDY    51  50  96 VRB3      29.90F
LONDON         CLOUDY    54  49  83 NE6       29.86R
SOMERSET*      CLOUDY    52  52 100 N7        29.88S
MONTICELLO*    CLOUDY    54  52  93 N15       29.88R
WILLIAMSBURG*  CLOUDY    54  54 100 NE5       29.84R
MIDDLESBORO*   CLOUDY    54  50  88 SE7       29.85S
HARLAN APT*    CLOUDY    52  50  93 N3        29.86F
PIKE CO APT*   LGT RAIN  49  49 100 E9        29.95F
BIG SANDY APT* RAIN      51  51 100 NE5       29.96S
MOREHEAD APT*  CLOUDY    54  46  76 E8        29.98R
ASHLAND*       CLOUDY    54  52  94 CALM      29.96R
$$

KYZ035-036-041-042-044-050-067-078-099-240300
...CENTRAL KENTUCKY...

CITY           SKY/WX    TMP DP  RH WIND       PRES   REMARKS
MT STERLING*   CLOUDY    54  46  76 E23G30    29.94F
FLEMING/MASON* CLOUDY    55  47  73 E5        29.99R
DANVILLE*      CLOUDY    52  46  82 NE8G18    29.93R
LEXINGTON      CLOUDY    56  46  69 NE22      29.89F
FRANKFORT      CLOUDY    59  45  59 NE13G21   29.91R
LOUISVILLE     CLOUDY    60  41  49 N5        29.95R
LEBANON*         N/A     55  48  76 NE7       29.93R
GLASGOW*       CLOUDY    53  51  94 NE8       29.89S
BOWLING GREEN  CLOUDY    53  50  89 N8        29.90R
$$

KYZ091>093-OHZ055-061-077-WVZ005-015-034-035-042-240300
...SOUTHERN OHIO/WEST VIRGINIA...

CITY           SKY/WX    TMP DP  RH WIND       PRES   REMARKS
COVINGTON      CLOUDY    60  35  39 NE9       29.97R
COLUMBUS       CLOUDY    58  37  45 NE6       30.00R
DAYTON         MOCLDY    53  35  50 NE6       30.02R
WILMINGTON     PTCLDY    52  40  63 NE6       29.99S
HUNTINGTON     CLOUDY    53  50  89 CALM      29.97R
CHARLESTON     CLOUDY    55  52  89 S3        29.98R
PINEVILLE*     RAIN      50  47  92 MISG      30.02R
BECKLEY        LGT RAIN  46  43  89 E12G21    29.98F
BLUEFIELD      LGT RAIN  43  41  93 SE10G17   29.98R
LOGAN CO APT*  CLOUDY    50  50 100 CALM      29.97R
$$

VAZ002-007-008-TNZ017-027-036-066-071-240300
...SOUTHWEST VIRGINIA/EAST TENNESSEE...

CITY           SKY/WX    TMP DP  RH WIND       PRES   REMARKS
WISE*          LGT RAIN  48  48 100 NE5       29.94S
JONESVILLE*    LGT RAIN  50  50 100 E7        29.89F
ABINGDON*      RAIN      48  48  97 E12G17    29.97R
BRISTOL        RAIN      49  47  93 NE7       29.92S
MORRISTOWN*    MOCLDY    52  50  93 E18       29.81F
SEVIERVILLE*   PTCLDY    54  52  94 CALM      29.81R
KNOXVILLE      LGT RAIN  55  53  93 N9        29.81R
LAFOLLETTE*    CLOUDY    54  52  94 CALM      29.88R
OAK RIDGE      CLOUDY    55  52  89 VRB3      29.84R
CROSSVILLE     CLOUDY    53  51  93 E7        29.82R
NASHVILLE      LGT RAIN  53  50  89 N15       29.87R FOG
$$

...KEY TO REMARKS...
VSB - VISIBILITY IN MILES
WCI - WIND CHILL INDEX
HX  - HEAT INDEX

$$




USA.gov is the U.S. government's official web portal to all federal, state and local government web resources and services.